Weather History for Richmond, VA

Change the Weather History Date:

Friday, April 12, 2013

  Actual Average Record
Temperature  
Mean Temperature 76 °F 57 °F  
Max Temperature 84 °F 69 °F 95 °F (1930)
Min Temperature 67 °F 45 °F 28 °F (1973)
Degree Days  
Heating Degree Days 0 9  
Month to date heating degree days 110 122  
Since 1 July heating degree days 3502 3574  
Cooling Degree Days 11 1  
Month to date cooling degree days 43 11  
Year to date cooling degree days 44 17  
Growing Degree Days 25 (Base 50)    
Moisture  
Dew Point 64 °F    
Average Humidity 63    
Maximum Humidity 90    
Minimum Humidity 35    
Precipitation  
Precipitation 0.24 in 0.11 in 1.54 in (1959)
Month to date precipitation 1.09 1.38  
Year to date precipitation 14.59 11.22  
Snow  
Snow 0.00 in 0.00 in 2.70 in (1918)
Month to date snowfall T 0.1  
Since 1 July snowfall 8.6 10.3  
Snow Depth 0.00 in    
Sea Level Pressure  
Sea Level Pressure 29.68 in    
Wind  
Wind Speed 14 mph (South)    
Max Wind Speed 24 mph    
Max Gust Speed 35 mph    
Visibility 9 miles    
Events Rain , Thunderstorm    
T = Trace of Precipitation, MM = Missing Value Source: NWS Daily Summary

Daily Weather History Graph

Daily Weather History Graph

Search for Another Location

Airport:

Trip Planner

Search our weather history database for the weather conditions in past years. The results will help you decide how hot, cold, wet, or windy it might be!

Date:

Astronomy

Apr. 12, 2013 Rise Set
Actual Time 6:38 AM EDT 7:42 PM EDT
Civil Twilight 6:11 AM EDT 8:09 PM EDT
Nautical Twilight 5:39 AM EDT 8:41 PM EDT
Astronomical Twilight 5:06 AM EDT 9:14 PM EDT
Moon 7:49 AM EDT (4/12) 10:07 PM EDT (4/12)
Length of Visible Light 13h 57m
Length of Day
13h 03m
Waxing Crescent, 5% of the Moon is Illuminated
Apr 12
Waxing Crescent
Apr 18
First Quarter
Apr 25
Full
May 2
Last Quarter
May 9
New

Hourly Weather History & Observations

Time (EDT) Temp. Heat Index Dew Point Humidity Pressure Visibility Wind Dir Wind Speed Gust Speed Precip Events Conditions
12:54 AM 73.0 °F - 62.1 °F 68% 29.79 in 10.0 mi South 12.7 mph - N/A   Overcast
1:54 AM 72.0 °F - 63.0 °F 73% 29.78 in 10.0 mi South 17.3 mph - N/A   Overcast
2:54 AM 72.0 °F - 64.0 °F 76% 29.75 in 10.0 mi South 15.0 mph 25.3 mph N/A   Overcast
3:49 AM 71.6 °F - 64.4 °F 78% 29.73 in 10.0 mi South 15.0 mph - N/A   Mostly Cloudy
3:54 AM 71.1 °F - 64.0 °F 78% 29.75 in 10.0 mi South 17.3 mph - N/A   Overcast
4:54 AM 71.1 °F - 64.0 °F 78% 29.72 in 10.0 mi South 17.3 mph - N/A   Overcast
5:54 AM 71.1 °F - 64.0 °F 78% 29.71 in 10.0 mi South 18.4 mph 25.3 mph 0.00 in Rain Light Rain
6:54 AM 69.1 °F - 64.0 °F 84% 29.73 in 7.0 mi South 15.0 mph - 0.01 in Rain Light Rain
7:31 AM 68.0 °F - 64.4 °F 88% 29.72 in 6.0 mi South 10.4 mph - 0.06 in Rain Light Rain
7:54 AM 68.0 °F - 64.9 °F 90% 29.73 in 5.0 mi South 11.5 mph 19.6 mph 0.08 in Rain Light Rain
8:18 AM 66.2 °F - 64.4 °F 94% 29.72 in 2.5 mi South 11.5 mph - 0.04 in Rain Rain
8:26 AM 66.2 °F - 64.4 °F 94% 29.72 in 2.5 mi South 11.5 mph - 0.07 in Rain Light Rain
8:35 AM 66.2 °F - 64.4 °F 94% 29.72 in 5.0 mi South 15.0 mph 20.7 mph 0.09 in Rain Light Rain
8:54 AM 68.0 °F - 64.9 °F 90% 29.73 in 10.0 mi South 17.3 mph 25.3 mph 0.11 in Rain Light Rain
9:54 AM 70.0 °F - 66.0 °F 87% 29.71 in 10.0 mi South 18.4 mph - 0.00 in   Overcast
10:54 AM 72.0 °F - 64.9 °F 78% 29.70 in 10.0 mi South 23.0 mph 28.8 mph N/A   Mostly Cloudy
11:31 AM 73.4 °F - 64.4 °F 73% 29.69 in 10.0 mi South 20.7 mph 27.6 mph N/A   Mostly Cloudy
11:54 AM 73.9 °F - 66.9 °F 79% 29.70 in 10.0 mi South 15.0 mph - 0.00 in   Mostly Cloudy
12:11 PM 73.4 °F - 64.4 °F 73% 29.68 in 10.0 mi South 18.4 mph 25.3 mph N/A   Mostly Cloudy
12:46 PM 75.2 °F - 66.2 °F 73% 29.65 in 10.0 mi SSW 18.4 mph 28.8 mph N/A   Mostly Cloudy
12:54 PM 78.1 °F - 66.9 °F 68% 29.66 in 10.0 mi SSW 19.6 mph 26.5 mph N/A   Mostly Cloudy
1:11 PM 77.0 °F - 66.2 °F 69% 29.65 in 10.0 mi South 18.4 mph 26.5 mph N/A   Mostly Cloudy
1:54 PM 78.1 °F - 64.9 °F 64% 29.63 in 10.0 mi SSW 13.8 mph 23.0 mph N/A   Mostly Cloudy
2:32 PM 82.4 °F 83.9 °F 64.4 °F 54% 29.61 in 10.0 mi SW 19.6 mph 24.2 mph N/A   Mostly Cloudy
2:54 PM 82.0 °F 83.1 °F 63.0 °F 52% 29.62 in 10.0 mi SW 16.1 mph 23.0 mph N/A   Mostly Cloudy
3:54 PM 81.0 °F 81.9 °F 62.1 °F 52% 29.59 in 10.0 mi SW 9.2 mph - N/A   Mostly Cloudy
4:54 PM 81.0 °F 82.2 °F 63.0 °F 54% 29.57 in 10.0 mi SSW 12.7 mph - 0.00 in   Mostly Cloudy
5:54 PM 80.1 °F 81.9 °F 64.9 °F 60% 29.57 in 10.0 mi South 10.4 mph - 0.00 in   Mostly Cloudy
6:54 PM 78.1 °F - 64.0 °F 62% 29.58 in 10.0 mi South 8.1 mph - 0.00 in Rain Light Rain
7:54 PM 72.0 °F - 66.9 °F 84% 29.58 in 10.0 mi South 4.6 mph - 0.04 in   Mostly Cloudy
8:28 PM 71.6 °F - 66.2 °F 83% 29.58 in 10.0 mi SW 3.5 mph - N/A Thunderstorm Thunderstorm
8:54 PM 71.1 °F - 66.9 °F 87% 29.61 in 10.0 mi South 4.6 mph - N/A   Mostly Cloudy
9:54 PM 70.0 °F - 66.9 °F 90% 29.63 in 10.0 mi SSE 3.5 mph - N/A   Mostly Cloudy
10:54 PM 73.0 °F - 48.9 °F 42% 29.65 in 10.0 mi WNW 9.2 mph - N/A   Mostly Cloudy
11:54 PM 72.0 °F - 42.1 °F 34% 29.68 in 10.0 mi NW 13.8 mph - N/A   Mostly Cloudy